Ellensburg, WA
on Tuesday, November 6, 2012

Tuesday
Previous Day Next Day
Daily Summary
 ActualAverage (KYKM)Record (KYKM)
Temperature
Mean Temperature °F 41°F  
Max Temperature 59°F 53°F 71°F (2006)
Min Temperature 35°F 29°F 11°F (2003)
Degree Days
Heating Degree Days 18 24  
Month to date heating degree days 139  
Since 1 July heating degree days 843  
Cooling Degree Days 0 0  
Month to date cooling degree days 0  
Year to date cooling degree days 472  
Moisture
Dew Point 37°F   
Average Humidity 66    
Maximum Humidity 83    
Minimum Humidity 42    
Precipitation
Precipitation 0.00 in 0.03 in 0.41 in (1980)
Month to date precipitation 0.17  
Year to date precipitation 5.84  
Snow
Snow 0.00 in 0.00 in 0.10 in (1973)
Month to date snowfall 0.1  
Year to date snowfall 8.8  
Since 1 July snowfall 0.2  
Snow Depth in   
Wind
Wind Speed 3 mph   
Max Wind Speed 24 mph   
Max Gust Speed 31 mph   
Visibility 10 miles   
Events     

Key: T is trace of precipitation, MM is missing value
Source: NWS Daily Summary
Time(PST)TemperatureDew PointHumidity Pressure Visibility Wind DirectionWind SpeedGust SpeedPrecipitationEvents Conditions
12:53 AM 39.0°F 33.1°F 79% 30.19 in 10.0 miles Calm Calm - N/A   Clear
1:53 AM 39.9°F 34.0°F 79% 30.18 in 10.0 miles East 3.5 mph - N/A   Clear
2:53 AM 39.0°F 34.0°F 82% 30.17 in 10.0 miles ENE 4.6 mph - N/A   Clear
3:53 AM 36.0°F 30.9°F 82% 30.16 in 10.0 miles Calm Calm - N/A   Clear
4:53 AM 36.0°F 30.0°F 79% 30.15 in 10.0 miles Calm Calm - N/A   Clear
5:53 AM 36.0°F 30.0°F 79% 30.14 in 10.0 miles Calm Calm - N/A   Clear
6:53 AM 35.1°F 30.0°F 82% 30.13 in 10.0 miles Calm Calm - N/A   Clear
7:53 AM 37.9°F 33.1°F 83% 30.13 in 10.0 miles Calm Calm - N/A   Clear
8:53 AM 42.1°F 36.0°F 79% 30.11 in 10.0 miles Calm Calm - N/A   Clear
9:53 AM 48.0°F 39.0°F 71% 30.09 in 10.0 miles Calm Calm - N/A   Clear
10:53 AM 51.1°F 39.0°F 63% 30.05 in 10.0 miles Calm Calm - N/A   Clear
11:53 AM 55.0°F 39.0°F 55% 30.02 in 10.0 miles Calm Calm - N/A   Clear
12:53 PM 57.0°F 37.9°F 49% 29.97 in 10.0 miles SE 4.6 mph - N/A   Clear
1:53 PM 59.0°F 37.0°F 44% 29.95 in 10.0 miles Calm Calm - N/A   Clear
2:53 PM 59.0°F 36.0°F 42% 29.94 in 10.0 miles Calm Calm - N/A   Clear
3:53 PM 57.0°F 37.9°F 49% 29.93 in 10.0 miles Calm Calm - N/A   Partly Cloudy
4:53 PM 53.1°F 37.9°F 57% 29.92 in 10.0 miles Calm Calm - N/A   Clear
5:53 PM 52.0°F 39.0°F 61% 29.93 in 10.0 miles Variable 3.5 mph - N/A   Clear
6:53 PM 55.9°F 44.1°F 64% 29.92 in 10.0 miles WNW 12.7 mph 19.6 mph N/A   Clear
7:53 PM 55.9°F 44.1°F 64% 29.91 in 10.0 miles NW 6.9 mph - N/A   Partly Cloudy
8:53 PM 54.0°F 44.1°F 69% 29.92 in 10.0 miles NW 9.2 mph - N/A   Partly Cloudy
9:53 PM 52.0°F 39.9°F 63% 29.93 in 10.0 miles NW 20.7 mph 29.9 mph N/A   Partly Cloudy
10:53 PM 51.1°F 39.0°F 63% 29.93 in 10.0 miles NW 21.9 mph 28.8 mph N/A   Scattered Clouds
11:53 PM 50.0°F 35.1°F 57% 29.94 in 10.0 miles NW 24.2 mph 31.1 mph N/A   Clear
Moon Phase
Nov. 06 Nov. 06 Nov. 13 Nov. 20 Nov. 28
Sunrise:06:53 AM (PST) Moon Rise:11:27 PM (PST)11/6
Sunset:04:37 PM (PST) Moon Set:12:44 PM (PST)11/6

Copyright © 2014 The Weather Underground, Inc.